Погода в Лакомой Буде

Россия / Брянская область     52°29′13″N   32°08′23″E
темп.,
°C
ветер,
м/с
пор.,
м/с
влажн.,
%
обл.,
%
осадки,
мм/ч
давл.,
гПа
погр.,
м
8 мая, сб
сб800:00+10ю61296100 0.3 1007568
03:00+10ююз3698100 0.4 1005277
06:00+8з2497100 0.3 1005151
09:00+10зсз4588100 0.4 1005522
12:00+9сз6994100 1.6 1005568
15:00+6сз81292100 3.8 1007941
18:00+6сз71288100 4.3 10101181
21:00+6сз71282100 4.7 1013839
9 мая, вс
вс900:00+3зсз61483100 0.0 1015446
03:00+2зсз513870 0.0 1017344
06:00+1зсз511891 0.0 1019299
09:00+6сз69665 0.0 1021968
12:00+10сз68485 0.0 10231886
15:00+11сз684297 0.0 10232463
18:00+11ссз46525 0.0 10242126
21:00+6ссз22635 0.0 102710
10 мая, пн
пн1000:00+4юз00645 0.0 102810
03:00+4ю11645 0.0 102910
06:00+4ююв22665 0.0 103012
09:00+10ююв22555 0.0 1031367
12:00+13ююв22441 0.0 10301219
15:00+15юв11393 0.0 10291387
18:00+15в11434 0.0 10291225
21:00+9в22590 0.0 102913
11 мая, вт
вт1100:00+7в22650 0.0 102910
03:00+6всв33710 0.0 102927
06:00+6всв34770 0.0 102967
09:00+12всв47621 0.0 1028494
12:00+15всв67482 0.0 10271046
15:00+17всв57440 0.0 10251207
18:00+17всв57590 0.0 1025966
21:00+11всв411822 0.0 1024223
12 мая, ср
ср1200:00+9в359218 0.0 102489
03:00+8св36955 0.0 1023111
06:00+9св5128961 0.0 1021330
09:00+10в598976 0.3 1021624
12:00+15вюв7105728 0.0 10201706
15:00+15вюв8116383 0.3 10201413
18:00+14вюв6117214 0.3 10191258
21:00+10в4108990 0.5 1019227